EW6434 Weather Reports


Display with metric or nautical units.
time (UTC)temp
F
wind
direction
speed
MPH
gust
MPH
rain 1hr
in
rain 24hr
in
rain mn
in
humidity
%
barometer
mb
20260905201558 74 132 0.0 4.0 0.00 0.00 0.00 37 1011.7
20260905200100 74 19 0.0 2.0 0.00 0.00 0.00 35 1011.8
20260905194555 74 130 0.0 3.0 0.00 0.00 0.00 34 1012.0
20260905193051 73 173 0.0 3.0 0.00 0.00 0.00 39 1012.1
20260905191549 73 278 0.0 1.0 0.00 0.00 0.00 39 1012.4
20260905190046 72 84 0.0 4.0 0.00 0.00 0.00 39 1012.6
20260905184554 71 173 0.0 3.0 0.00 0.00 0.00 43 1012.8
20260905183040 69 42 0.0 4.0 0.00 0.00 0.00 43 1013.2
20260905181538 67 52 2.0 6.0 0.00 0.00 0.00 44 1013.5
20260905180043 67 98 0.0 3.0 0.00 0.00 0.00 48 1013.6
20260905174538 65 314 0.0 6.0 0.00 0.00 0.00 50 1013.9
20260905173054 65 106 0.0 2.0 0.00 0.00 0.00 48 1013.8
20260905171536 67 167 0.0 5.0 0.00 0.00 0.00 45 1013.6
20260905170035 68 106 2.0 5.0 0.00 0.00 0.00 43 1013.9
20260905164533 67 96 0.0 3.0 0.00 0.00 0.00 46 1013.8
20260905163030 67 131 0.0 0.0 0.00 0.00 0.00 51 1013.7
20260905161525 64 77 0.0 0.0 0.00 0.00 0.00 60 1013.9
20260905160021 62 62 0.0 0.0 0.00 0.00 0.00 65 1014.2
20260905154518 59 62 0.0 0.0 0.00 0.00 0.00 68 1014.4
20260905153018 55 62 0.0 0.0 0.00 0.00 0.00 74 1014.6
20260905151518 52 63 0.0 0.0 0.00 0.00 0.00 81 1014.8
20260905150006 47 62 0.0 0.0 0.00 0.00 0.00 88 1014.9
20260905144514 44 62 0.0 0.0 0.00 0.00 0.00 90 1014.9
20260905143005 43 62 0.0 0.0 0.00 0.00 0.00 92 1014.9
20260905141503 42 62 0.0 0.0 0.00 0.00 0.00 92 1015.0
20260905134501 42 62 0.0 0.0 0.00 0.00 0.00 92 1014.9
20260905133105 42 62 0.0 0.0 0.00 0.00 0.00 92 1014.8
20260905131600 41 62 0.0 0.0 0.00 0.00 0.00 92 1014.6
20260905130057 41 62 0.0 0.0 0.00 0.00 0.00 91 1014.5
20260905124555 42 62 0.0 0.0 0.00 0.00 0.00 91 1014.2
20260905123105 42 62 0.0 0.0 0.00 0.00 0.00 91 1014.0
20260905121555 42 62 0.0 0.0 0.00 0.00 0.00 91 1013.7
20260905120051 42 62 0.0 0.0 0.00 0.00 0.00 91 1013.6
20260905114556 42 62 0.0 0.0 0.00 0.00 0.00 91 1013.6
20260905113046 42 62 0.0 0.0 0.00 0.00 0.00 90 1013.5
20260905111546 42 62 0.0 0.0 0.00 0.00 0.00 91 1013.5
20260905110044 42 62 0.0 0.0 0.00 0.00 0.00 91 1013.4
20260905104546 43 62 0.0 0.0 0.00 0.00 0.00 91 1013.3
20260905103043 43 62 0.0 0.0 0.00 0.00 0.00 92 1013.2
20260905101551 43 62 0.0 0.0 0.00 0.00 0.00 91 1013.0
20260905100111 43 62 0.0 0.0 0.00 0.00 0.00 91 1013.0
20260905094546 43 62 0.0 0.0 0.00 0.00 0.00 91 1013.0
20260905093036 44 62 0.0 0.0 0.00 0.00 0.00 91 1012.9
20260905091547 44 62 0.0 0.0 0.00 0.00 0.00 91 1013.0
20260905090035 43 62 0.0 0.0 0.00 0.00 0.00 92 1013.0
20260905084538 44 62 0.0 0.0 0.00 0.00 0.00 92 1013.0
20260905083040 44 62 0.0 0.0 0.00 0.00 0.00 91 1013.1
20260905081531 44 62 0.0 0.0 0.00 0.00 0.00 92 1013.2
20260905080030 44 62 0.0 0.0 0.00 0.00 0.00 92 1013.2
20260905074530 45 62 0.0 0.0 0.00 0.00 0.00 91 1013.2
20260905073027 45 62 0.0 0.0 0.00 0.00 0.00 91 1013.0
20260905071525 45 62 0.0 0.0 0.00 0.00 0.00 90 1013.1
20260905070023 45 62 0.0 0.0 0.00 0.00 0.00 90 1012.9
20260905064522 46 62 0.0 0.0 0.00 0.00 0.00 89 1012.8
20260905063019 46 62 0.0 0.0 0.00 0.00 0.00 89 1012.7
20260905061518 46 62 0.0 0.0 0.00 0.00 0.00 88 1012.8
20260905060019 47 62 0.0 0.0 0.00 0.00 0.00 88 1012.7
20260905054539 47 62 0.0 0.0 0.00 0.00 0.00 86 1012.7
20260905053015 48 62 0.0 0.0 0.00 0.00 0.00 86 1012.6
20260905051514 48 62 0.0 0.0 0.00 0.00 0.00 84 1012.4
20260905050015 49 62 0.0 0.0 0.00 0.00 0.00 83 1012.3
20260905044514 49 62 0.0 0.0 0.00 0.00 0.00 82 1012.2
20260905043013 50 62 0.0 0.0 0.00 0.00 0.00 82 1012.1
20260905041514 50 62 0.0 0.0 0.00 0.00 0.00 79 1012.0
20260905040012 51 62 0.0 0.0 0.00 0.00 0.00 79 1011.9
20260905034514 52 62 0.0 0.0 0.00 0.00 0.00 77 1011.9
20260905033015 52 62 0.0 0.0 0.00 0.00 0.00 76 1011.8
20260905031511 53 62 0.0 0.0 0.00 0.00 0.00 74 1011.5
20260905030013 54 62 0.0 0.0 0.00 0.00 0.00 72 1011.3
20260905024509 55 62 0.0 0.0 0.00 0.00 0.00 71 1011.0
20260905023009 56 62 0.0 0.0 0.00 0.00 0.00 68 1010.5
20260905021509 57 62 0.0 0.0 0.00 0.00 0.00 66 1010.3
20260905020008 58 62 0.0 0.0 0.00 0.00 0.00 64 1010.4
20260905014507 59 62 0.0 0.0 0.00 0.00 0.00 61 1010.3
20260905013013 60 62 0.0 0.0 0.00 0.00 0.00 60 1010.0
20260905011507 62 62 0.0 0.0 0.00 0.00 0.00 56 1009.9
20260905010014 64 62 0.0 1.0 0.00 0.00 0.00 49 1009.8
20260905004507 65 63 0.0 2.0 0.00 0.00 0.00 47 1009.7
20260905003006 66 272 0.0 1.0 0.00 0.00 0.00 44 1009.5
20260905001505 68 69 0.0 4.0 0.00 0.00 0.00 44 1009.3
20260905000006 69 137 0.0 1.0 0.00 0.00 0.00 42 1009.1
20260904234504 70 73 0.0 3.0 0.00 0.00 0.00 39 1009.2
20260904233002 71 96 0.0 6.0 0.00 0.00 0.00 37 1009.3
20260904231501 72 53 0.0 6.0 0.00 0.00 0.00 36 1009.2
20260904230003 73 216 1.0 6.0 0.00 0.00 0.00 37 1009.3
20260904224605 72 131 1.0 6.0 0.00 0.00 0.00 35 1009.3
20260904223059 72 222 0.0 9.0 0.00 0.00 0.00 39 1009.3
20260904221606 73 222 0.0 3.0 0.00 0.00 0.00 39 1009.3
20260904220101 72 237 0.0 6.0 0.00 0.00 0.00 39 1009.5
20260904214556 72 162 0.0 4.0 0.00 0.00 0.00 38 1009.7
20260904213053 72 226 0.0 6.0 0.00 0.00 0.00 42 1009.9
20260904211551 73 128 0.0 6.0 0.00 0.00 0.00 39 1010.1
20260904210054 72 82 0.0 2.0 0.00 0.00 0.00 42 1010.5
20260904204545 69 112 0.0 7.0 0.00 0.00 0.00 46 1010.8
20260904203051 66 252 0.0 5.0 0.00 0.00 0.00 56 1011.1